Time,TemperatureF,DewpointF,PressureIn,WindDirection,WindDirectionDegrees,WindSpeedMPH,WindSpeedGustMPH,Humidity,HourlyPrecipIn,Conditions,Clouds,dailyrainin,SoftwareType,DateUTC
2013-07-16 00:00:00,58.7,50.5,29.72,SSE,158,3.0,8.0,74,0.00,,---,0.00,VWS V14.01,2013-07-16 07:00:00,
2013-07-16 00:15:00,58.0,50.5,29.73,SE,135,2.0,7.0,76,0.00,,---,0.00,VWS V14.01,2013-07-16 07:15:00,
2013-07-16 00:30:00,57.2,50.4,29.73,SE,135,4.0,8.0,78,0.00,,---,0.00,VWS V14.01,2013-07-16 07:30:00,
2013-07-16 00:45:00,56.7,50.3,29.73,SE,135,5.0,9.0,79,0.00,,---,0.00,VWS V14.01,2013-07-16 07:45:00,
2013-07-16 01:00:00,56.1,50.0,29.73,SE,135,2.0,6.0,80,0.00,,---,0.00,VWS V14.01,2013-07-16 08:00:00,
2013-07-16 01:15:00,55.3,49.9,29.73,ESE,112,2.0,6.0,82,0.00,,---,0.00,VWS V14.01,2013-07-16 08:15:00,
2013-07-16 01:30:00,54.7,50.0,29.73,ESE,112,3.0,7.0,84,0.00,,---,0.00,VWS V14.01,2013-07-16 08:30:00,
2013-07-16 01:45:00,54.4,49.7,29.73,ESE,112,4.0,8.0,84,0.00,,---,0.00,VWS V14.01,2013-07-16 08:45:00,
2013-07-16 02:00:00,54.0,49.6,29.73,ESE,112,3.0,7.0,85,0.00,,---,0.00,VWS V14.01,2013-07-16 09:00:00,
2013-07-16 02:15:00,53.7,49.6,29.73,ESE,112,2.0,7.0,86,0.00,,---,0.00,VWS V14.01,2013-07-16 09:15:00,
2013-07-16 02:30:00,53.4,49.3,29.73,ESE,112,0.0,4.0,86,0.00,,---,0.00,VWS V14.01,2013-07-16 09:30:00,
2013-07-16 02:45:00,53.1,49.3,29.73,ESE,112,2.0,6.0,87,0.00,,---,0.00,VWS V14.01,2013-07-16 09:45:00,
2013-07-16 03:00:00,52.7,48.6,29.73,ESE,112,2.0,6.0,86,0.00,,---,0.00,VWS V14.01,2013-07-16 10:00:00,
2013-07-16 03:15:00,52.3,48.5,29.73,ESE,112,0.0,1.0,87,0.00,,---,0.00,VWS V14.01,2013-07-16 10:15:00,
2013-07-16 03:30:00,52.4,49.0,29.73,ESE,112,0.0,0.0,88,0.00,,---,0.00,VWS V14.01,2013-07-16 10:30:00,
2013-07-16 03:45:00,52.3,48.9,29.74,ESE,112,0.0,0.0,88,0.00,,---,0.00,VWS V14.01,2013-07-16 10:45:00,
2013-07-16 04:00:00,52.3,48.9,29.74,ESE,112,0.0,0.0,88,0.00,,---,0.00,VWS V14.01,2013-07-16 11:00:00,
2013-07-16 04:15:00,52.3,48.9,29.75,ESE,112,0.0,2.0,88,0.00,,---,0.00,VWS V14.01,2013-07-16 11:15:00,
2013-07-16 04:30:00,52.2,48.8,29.75,ESE,112,0.0,0.0,88,0.00,,---,0.00,VWS V14.01,2013-07-16 11:30:00,
2013-07-16 04:45:00,52.1,48.7,29.75,ESE,112,0.0,0.0,88,0.00,,---,0.00,VWS V14.01,2013-07-16 11:45:00,
2013-07-16 05:00:00,51.8,48.4,29.75,ESE,112,0.0,0.0,88,0.00,,---,0.00,VWS V14.01,2013-07-16 12:00:00,
2013-07-16 05:15:00,51.4,48.0,29.76,ESE,112,0.0,0.0,88,0.00,,---,0.00,VWS V14.01,2013-07-16 12:15:00,
2013-07-16 05:30:00,51.0,47.6,29.77,ESE,112,0.0,0.0,88,0.00,,---,0.00,VWS V14.01,2013-07-16 12:30:00,
2013-07-16 05:45:00,50.5,47.1,29.77,ESE,112,0.0,0.0,88,0.00,,---,0.00,VWS V14.01,2013-07-16 12:45:00,
2013-07-16 06:00:00,49.9,46.5,29.78,ESE,112,0.0,0.0,88,0.00,,---,0.00,VWS V14.01,2013-07-16 13:00:00,
2013-07-16 06:15:00,49.3,45.9,29.78,ESE,112,0.0,0.0,88,0.00,,---,0.00,VWS V14.01,2013-07-16 13:15:00,
2013-07-16 06:30:00,51.0,47.6,29.77,ESE,112,0.0,0.0,88,0.00,,---,0.00,VWS V14.01,2013-07-16 13:30:00,
2013-07-16 06:35:00,49.2,46.1,29.79,ESE,108,0.0,0.0,89,0.00,,---,0.00,VWS V14.01,2013-07-16 13:35:00,
2013-07-16 06:40:00,49.2,46.1,29.79,ESE,108,0.0,0.0,89,0.00,,---,0.00,VWS V14.01,2013-07-16 13:40:00,
2013-07-16 06:45:00,49.3,46.2,29.80,ESE,108,0.0,0.0,89,0.00,,---,0.00,VWS V14.01,2013-07-16 13:45:00,
2013-07-16 06:50:00,49.3,46.2,29.80,ESE,108,0.0,0.0,89,0.00,,---,0.00,VWS V14.01,2013-07-16 13:50:00,
2013-07-16 06:55:00,49.3,46.2,29.80,ESE,108,0.0,0.0,89,0.00,,---,0.00,VWS V14.01,2013-07-16 13:55:00,
2013-07-16 07:00:00,49.4,46.6,29.81,ENE,72,0.0,0.0,90,0.00,,---,0.00,VWS V14.01,2013-07-16 14:00:00,
2013-07-16 07:05:00,49.7,47.2,29.81,ENE,72,0.0,0.0,91,0.00,,---,0.00,VWS V14.01,2013-07-16 14:05:00,
2013-07-16 07:10:00,50.2,48.0,29.81,ENE,76,0.0,0.0,92,0.00,,---,0.00,VWS V14.01,2013-07-16 14:10:00,
2013-07-16 07:15:00,50.6,48.4,29.82,ENE,77,0.0,0.0,92,0.00,,---,0.00,VWS V14.01,2013-07-16 14:15:00,
2013-07-16 07:20:00,51.1,48.9,29.82,East,82,0.0,0.0,92,0.00,,---,0.00,VWS V14.01,2013-07-16 14:20:00,
2013-07-16 07:25:00,51.5,49.3,29.82,SW,215,1.0,3.0,92,0.00,,---,0.00,VWS V14.01,2013-07-16 14:25:00,
2013-07-16 07:30:00,51.9,49.9,29.82,SW,227,0.0,3.0,93,0.00,,---,0.00,VWS V14.01,2013-07-16 14:30:00,
2013-07-16 07:35:00,52.3,50.0,29.83,SW,236,1.0,3.0,92,0.00,,---,0.00,VWS V14.01,2013-07-16 14:35:00,
2013-07-16 07:40:00,52.7,50.5,29.83,SE,140,0.0,4.0,92,0.00,,---,0.00,VWS V14.01,2013-07-16 14:40:00,
2013-07-16 07:45:00,53.2,50.9,29.83,SSE,162,0.0,4.0,92,0.00,,---,0.00,VWS V14.01,2013-07-16 14:45:00,
2013-07-16 07:50:00,53.6,51.3,29.83,SSE,166,0.0,2.0,92,0.00,,---,0.00,VWS V14.01,2013-07-16 14:50:00,
2013-07-16 07:55:00,54.0,51.4,29.83,South,173,1.0,2.0,91,0.00,,---,0.00,VWS V14.01,2013-07-16 14:55:00,
2013-07-16 08:00:00,54.4,52.1,29.83,South,173,0.0,2.0,92,0.00,,---,0.00,VWS V14.01,2013-07-16 15:00:00,
2013-07-16 08:05:00,54.8,52.2,29.83,South,179,0.0,5.0,91,0.00,,---,0.00,VWS V14.01,2013-07-16 15:05:00,
2013-07-16 08:10:00,55.5,52.6,29.84,SE,139,4.0,6.0,90,0.00,,---,0.00,VWS V14.01,2013-07-16 15:10:00,
2013-07-16 08:15:00,55.9,52.7,29.84,SSW,212,0.0,6.0,89,0.00,,---,0.00,VWS V14.01,2013-07-16 15:15:00,
2013-07-16 08:20:00,56.2,52.7,29.84,SW,217,0.0,3.0,88,0.00,,---,0.00,VWS V14.01,2013-07-16 15:20:00,
2013-07-16 08:25:00,56.7,53.2,29.84,South,185,0.0,4.0,88,0.00,,---,0.00,VWS V14.01,2013-07-16 15:25:00,
2013-07-16 08:30:00,57.2,53.4,29.84,South,186,0.0,5.0,87,0.00,,---,0.00,VWS V14.01,2013-07-16 15:30:00,
2013-07-16 08:35:00,57.6,53.5,29.85,South,187,1.0,3.0,86,0.00,,---,0.00,VWS V14.01,2013-07-16 15:35:00,
2013-07-16 08:40:00,57.9,53.4,29.85,South,190,0.0,3.0,85,0.00,,---,0.00,VWS V14.01,2013-07-16 15:40:00,
2013-07-16 08:45:00,58.3,53.5,29.85,South,190,0.0,3.0,84,0.00,,---,0.00,VWS V14.01,2013-07-16 15:45:00,
2013-07-16 08:50:00,58.7,53.9,29.85,South,190,0.0,0.0,84,0.00,,---,0.00,VWS V14.01,2013-07-16 15:50:00,
2013-07-16 08:55:00,59.1,54.0,29.85,SSW,198,2.0,5.0,83,0.00,,---,0.00,VWS V14.01,2013-07-16 15:55:00,
2013-07-16 09:00:00,59.7,54.2,29.85,SSW,198,0.0,5.0,82,0.00,,---,0.00,VWS V14.01,2013-07-16 16:00:00,
2013-07-16 09:05:00,60.3,54.1,29.85,WSW,244,3.0,3.0,80,0.00,,---,0.00,VWS V14.01,2013-07-16 16:05:00,
2013-07-16 09:10:00,60.9,54.0,29.85,SE,145,0.0,3.0,78,0.00,,---,0.00,VWS V14.01,2013-07-16 16:10:00,
2013-07-16 09:15:00,61.4,54.1,29.86,SE,145,0.0,3.0,77,0.00,,---,0.00,VWS V14.01,2013-07-16 16:15:00,
2013-07-16 09:20:00,62.0,54.4,29.85,SE,145,1.0,4.0,76,0.00,,---,0.00,VWS V14.01,2013-07-16 16:20:00,
2013-07-16 09:25:00,62.8,54.4,29.86,SSE,148,2.0,6.0,74,0.00,,---,0.00,VWS V14.01,2013-07-16 16:25:00,
2013-07-16 09:30:00,63.8,53.8,29.86,South,174,5.0,8.0,70,0.00,,---,0.00,VWS V14.01,2013-07-16 16:30:00,
2013-07-16 09:35:00,64.7,53.5,29.86,SSE,167,2.0,5.0,67,0.00,,---,0.00,VWS V14.01,2013-07-16 16:35:00,
2013-07-16 09:40:00,65.5,53.4,29.86,SSE,156,5.0,7.0,65,0.00,,---,0.00,VWS V14.01,2013-07-16 16:40:00,
2013-07-16 09:45:00,66.4,53.9,29.86,SE,134,5.0,7.0,64,0.00,,---,0.00,VWS V14.01,2013-07-16 16:45:00,
2013-07-16 09:50:00,67.2,53.8,29.86,South,173,7.0,7.0,62,0.00,,---,0.00,VWS V14.01,2013-07-16 16:50:00,
2013-07-16 09:55:00,67.8,53.0,29.86,SSE,157,2.0,8.0,59,0.00,,---,0.00,VWS V14.01,2013-07-16 16:55:00,
2013-07-16 10:00:00,68.5,53.6,29.85,SSE,147,2.0,9.0,59,0.00,,---,0.00,VWS V14.01,2013-07-16 17:00:00,
2013-07-16 10:05:00,69.1,53.7,29.86,SSE,167,5.0,6.0,58,0.00,,---,0.00,VWS V14.01,2013-07-16 17:05:00,
2013-07-16 10:10:00,69.5,53.6,29.86,SSE,158,0.0,7.0,57,0.00,,---,0.00,VWS V14.01,2013-07-16 17:10:00,
2013-07-16 10:15:00,69.7,52.8,29.86,South,174,0.0,7.0,55,0.00,,---,0.00,VWS V14.01,2013-07-16 17:15:00,
2013-07-16 10:20:00,69.9,53.0,29.86,South,178,0.0,8.0,55,0.00,,---,0.00,VWS V14.01,2013-07-16 17:20:00,
2013-07-16 10:25:00,70.3,53.9,29.87,SE,143,5.0,8.0,56,0.00,,---,0.00,VWS V14.01,2013-07-16 17:25:00,
2013-07-16 10:30:00,70.9,54.0,29.86,SSE,155,4.0,8.0,55,0.00,,---,0.00,VWS V14.01,2013-07-16 17:30:00,
2013-07-16 10:35:00,71.6,53.6,29.87,SSE,158,0.0,6.0,53,0.00,,---,0.00,VWS V14.01,2013-07-16 17:35:00,
2013-07-16 10:40:00,71.9,53.9,29.87,SSE,167,5.0,7.0,53,0.00,,---,0.00,VWS V14.01,2013-07-16 17:40:00,
2013-07-16 10:45:00,72.3,53.7,29.87,SSE,166,2.0,7.0,52,0.00,,---,0.00,VWS V14.01,2013-07-16 17:45:00,
2013-07-16 10:50:00,72.6,52.9,29.87,SSW,198,3.0,8.0,50,0.00,,---,0.00,VWS V14.01,2013-07-16 17:50:00,
2013-07-16 10:55:00,72.6,51.8,29.87,SSW,193,3.0,9.0,48,0.00,,---,0.00,VWS V14.01,2013-07-16 17:55:00,
2013-07-16 11:00:00,72.8,54.2,29.87,South,190,5.0,9.0,52,0.00,,---,0.00,VWS V14.01,2013-07-16 18:00:00,
2013-07-16 11:05:00,73.1,52.8,29.87,South,181,0.0,8.0,49,0.00,,---,0.00,VWS V14.01,2013-07-16 18:05:00,
2013-07-16 11:09:00,73.6,53.8,29.87,SSE,167,4.0,8.0,50,0.00,,---,0.00,VWS V14.01,2013-07-16 18:09:00,
2013-07-16 11:10:00,73.6,53.8,29.87,SSE,167,4.0,8.0,50,0.00,,---,0.00,VWS V14.01,2013-07-16 18:10:00,
2013-07-16 11:15:00,74.1,53.7,29.87,SE,144,4.0,8.0,49,0.00,,---,0.00,VWS V14.01,2013-07-16 18:15:00,
2013-07-16 11:20:00,74.5,53.0,29.87,South,182,8.0,10.0,47,0.00,,---,0.00,VWS V14.01,2013-07-16 18:20:00,
2013-07-16 11:24:00,74.6,53.6,29.87,SSW,200,6.0,10.0,48,0.00,,---,0.00,VWS V14.01,2013-07-16 18:24:00,
2013-07-16 11:29:00,74.8,53.2,29.87,SSW,202,7.0,10.0,47,0.00,,---,0.00,VWS V14.01,2013-07-16 18:29:00,
2013-07-16 11:30:00,74.9,53.9,29.87,South,184,5.0,10.0,48,0.00,,---,0.00,VWS V14.01,2013-07-16 18:30:00,
2013-07-16 11:34:00,75.4,54.4,29.87,South,188,6.0,8.0,48,0.00,,---,0.00,VWS V14.01,2013-07-16 18:34:00,
2013-07-16 11:39:00,75.8,54.2,29.87,South,180,7.0,11.0,47,0.00,,---,0.00,VWS V14.01,2013-07-16 18:39:00,
2013-07-16 11:44:00,76.2,56.2,29.87,SSE,161,8.0,11.0,50,0.00,,---,0.00,VWS V14.01,2013-07-16 18:44:00,
2013-07-16 11:45:00,76.4,55.8,29.87,SE,125,7.0,11.0,49,0.00,,---,0.00,VWS V14.01,2013-07-16 18:45:00,
2013-07-16 11:49:00,76.6,56.6,29.87,SE,140,5.0,11.0,50,0.00,,---,0.00,VWS V14.01,2013-07-16 18:49:00,
2013-07-16 11:54:00,77.0,55.2,29.87,South,175,7.0,11.0,47,0.00,,---,0.00,VWS V14.01,2013-07-16 18:54:00,
2013-07-16 11:59:00,77.0,55.2,29.87,South,185,5.0,11.0,47,0.00,,---,0.00,VWS V14.01,2013-07-16 18:59:00,
2013-07-16 12:00:00,76.9,56.3,29.87,South,169,5.0,11.0,49,0.00,,---,0.00,VWS V14.01,2013-07-16 19:00:00,
2013-07-16 12:04:00,77.1,56.5,29.87,SSE,160,8.0,11.0,49,0.00,,---,0.00,VWS V14.01,2013-07-16 19:04:00,
2013-07-16 12:09:00,77.1,55.9,29.87,SE,141,6.0,11.0,48,0.00,,---,0.00,VWS V14.01,2013-07-16 19:09:00,
2013-07-16 12:14:00,77.2,56.0,29.87,SSE,150,8.0,11.0,48,0.00,,---,0.00,VWS V14.01,2013-07-16 19:14:00,
2013-07-16 12:15:00,77.2,56.0,29.87,SSE,167,7.0,11.0,48,0.00,,---,0.00,VWS V14.01,2013-07-16 19:15:00,
2013-07-16 12:19:00,77.4,55.6,29.87,SSE,154,2.0,9.0,47,0.00,,---,0.00,VWS V14.01,2013-07-16 19:19:00,
2013-07-16 12:24:00,77.6,56.4,29.87,SE,138,10.0,10.0,48,0.00,,---,0.00,VWS V14.01,2013-07-16 19:24:00,
2013-07-16 12:29:00,77.9,55.5,29.87,SE,139,5.0,10.0,46,0.00,,---,0.00,VWS V14.01,2013-07-16 19:29:00,
2013-07-16 12:30:00,77.9,55.5,29.87,SE,136,8.0,10.0,46,0.00,,---,0.00,VWS V14.01,2013-07-16 19:30:00,
2013-07-16 12:34:00,77.9,55.5,29.87,SE,145,5.0,11.0,46,0.00,,---,0.00,VWS V14.01,2013-07-16 19:34:00,
2013-07-16 12:39:00,77.8,55.4,29.88,SSE,162,7.0,11.0,46,0.00,,---,0.00,VWS V14.01,2013-07-16 19:39:00,
2013-07-16 12:44:00,78.0,55.6,29.87,SSE,154,6.0,11.0,46,0.00,,---,0.00,VWS V14.01,2013-07-16 19:44:00,
2013-07-16 12:45:00,78.1,53.8,29.87,SSE,158,4.0,11.0,43,0.00,,---,0.00,VWS V14.01,2013-07-16 19:45:00,
2013-07-16 12:49:00,78.4,55.3,29.88,ESE,117,0.0,10.0,45,0.00,,---,0.00,VWS V14.01,2013-07-16 19:49:00,
2013-07-16 12:54:00,78.6,54.9,29.87,SSE,148,7.0,10.0,44,0.00,,---,0.00,VWS V14.01,2013-07-16 19:54:00,
2013-07-16 12:59:00,78.9,55.2,29.87,SSE,160,4.0,11.0,44,0.00,,---,0.00,VWS V14.01,2013-07-16 19:59:00,
2013-07-16 13:00:00,79.0,55.2,29.87,SE,141,6.0,11.0,44,0.00,,---,0.00,VWS V14.01,2013-07-16 20:00:00,
2013-07-16 13:04:00,79.1,56.0,29.87,SSE,150,7.0,11.0,45,0.00,,---,0.00,VWS V14.01,2013-07-16 20:04:00,
2013-07-16 13:09:00,79.0,55.9,29.88,SSE,163,6.0,11.0,45,0.00,,---,0.00,VWS V14.01,2013-07-16 20:09:00,
2013-07-16 13:14:00,79.0,54.6,29.87,SSE,153,7.0,11.0,43,0.00,,---,0.00,VWS V14.01,2013-07-16 20:14:00,
2013-07-16 13:15:00,79.0,54.0,29.87,SSE,150,4.0,12.0,42,0.00,,---,0.00,VWS V14.01,2013-07-16 20:15:00,
2013-07-16 13:19:00,79.1,53.4,29.87,SSE,167,2.0,12.0,41,0.00,,---,0.00,VWS V14.01,2013-07-16 20:19:00,
2013-07-16 13:24:00,79.5,54.4,29.87,SSW,192,6.0,12.0,42,0.00,,---,0.00,VWS V14.01,2013-07-16 20:24:00,
2013-07-16 13:29:00,79.7,54.6,29.87,South,172,6.0,12.0,42,0.00,,---,0.00,VWS V14.01,2013-07-16 20:29:00,
2013-07-16 13:30:00,79.7,55.9,29.87,SSE,159,5.0,12.0,44,0.00,,---,0.00,VWS V14.01,2013-07-16 20:30:00,
2013-07-16 13:34:00,79.8,54.7,29.87,SSE,160,7.0,12.0,42,0.00,,---,0.00,VWS V14.01,2013-07-16 20:34:00,
2013-07-16 13:39:00,80.1,56.2,29.86,SE,132,6.0,12.0,44,0.00,,---,0.00,VWS V14.01,2013-07-16 20:39:00,
2013-07-16 13:44:00,80.3,56.4,29.86,SSE,150,11.0,15.0,44,0.00,,---,0.00,VWS V14.01,2013-07-16 20:44:00,
2013-07-16 13:45:00,80.4,55.2,29.86,SE,144,7.0,15.0,42,0.00,,---,0.00,VWS V14.01,2013-07-16 20:45:00,
2013-07-16 13:49:00,80.6,54.8,29.87,SSE,156,4.0,11.0,41,0.00,,---,0.00,VWS V14.01,2013-07-16 20:49:00,
2013-07-16 13:54:00,81.0,53.0,29.87,South,176,4.0,11.0,38,0.00,,---,0.00,VWS V14.01,2013-07-16 20:54:00,
2013-07-16 13:59:00,81.3,54.0,29.86,SSE,159,5.0,12.0,39,0.00,,---,0.00,VWS V14.01,2013-07-16 20:59:00,
2013-07-16 14:00:00,81.5,54.9,29.86,South,179,8.0,12.0,40,0.00,,---,0.00,VWS V14.01,2013-07-16 21:00:00,
2013-07-16 14:04:00,81.9,54.5,29.86,SSE,153,4.0,10.0,39,0.00,,---,0.00,VWS V14.01,2013-07-16 21:04:00,
2013-07-16 14:09:00,82.2,55.5,29.86,SE,132,12.0,12.0,40,0.00,,---,0.00,VWS V14.01,2013-07-16 21:09:00,
2013-07-16 14:14:00,82.7,56.0,29.86,SSE,156,7.0,14.0,40,0.00,,---,0.00,VWS V14.01,2013-07-16 21:14:00,
2013-07-16 14:15:00,82.9,56.1,29.86,SE,146,6.0,14.0,40,0.00,,---,0.00,VWS V14.01,2013-07-16 21:15:00,
2013-07-16 14:19:00,83.1,57.0,29.86,SE,146,8.0,10.0,41,0.00,,---,0.00,VWS V14.01,2013-07-16 21:19:00,
2013-07-16 14:24:00,83.2,55.7,29.86,SE,132,9.0,12.0,39,0.00,,---,0.00,VWS V14.01,2013-07-16 21:24:00,
2013-07-16 14:29:00,83.2,57.1,29.86,SE,139,7.0,12.0,41,0.00,,---,0.00,VWS V14.01,2013-07-16 21:29:00,
2013-07-16 14:30:00,83.2,56.4,29.86,SE,144,13.0,17.0,40,0.00,,---,0.00,VWS V14.01,2013-07-16 21:30:00,
2013-07-16 14:34:00,83.3,57.2,29.86,SSE,166,5.0,13.0,41,0.00,,---,0.00,VWS V14.01,2013-07-16 21:34:00,
2013-07-16 14:39:00,83.6,56.8,29.86,SE,128,14.0,14.0,40,0.00,,---,0.00,VWS V14.01,2013-07-16 21:39:00,
2013-07-16 14:44:00,83.8,56.9,29.86,SE,136,10.0,16.0,40,0.00,,---,0.00,VWS V14.01,2013-07-16 21:44:00,
2013-07-16 14:45:00,83.8,56.9,29.86,SSE,150,6.0,16.0,40,0.00,,---,0.00,VWS V14.01,2013-07-16 21:45:00,
2013-07-16 14:49:00,83.8,56.9,29.86,SE,137,8.0,10.0,40,0.00,,---,0.00,VWS V14.01,2013-07-16 21:49:00,
2013-07-16 14:54:00,83.7,56.1,29.85,SSE,147,10.0,14.0,39,0.00,,---,0.00,VWS V14.01,2013-07-16 21:54:00,
2013-07-16 14:59:00,83.5,56.0,29.86,SE,142,11.0,18.0,39,0.00,,---,0.00,VWS V14.01,2013-07-16 21:59:00,
2013-07-16 15:00:00,83.4,55.9,29.86,SE,143,4.0,18.0,39,0.00,,---,0.00,VWS V14.01,2013-07-16 22:00:00,
2013-07-16 15:04:00,83.5,57.3,29.85,SSE,156,9.0,12.0,41,0.00,,---,0.00,VWS V14.01,2013-07-16 22:04:00,
2013-07-16 15:09:00,83.6,58.1,29.85,SSE,158,6.0,14.0,42,0.00,,---,0.00,VWS V14.01,2013-07-16 22:09:00,
2013-07-16 15:14:00,84.0,57.1,29.85,SSE,147,12.0,18.0,40,0.00,,---,0.00,VWS V14.01,2013-07-16 22:14:00,
2013-07-16 15:15:00,84.1,56.5,29.85,SE,144,10.0,18.0,39,0.00,,---,0.00,VWS V14.01,2013-07-16 22:15:00,
2013-07-16 15:19:00,84.1,57.2,29.85,SSE,155,8.0,15.0,40,0.00,,---,0.00,VWS V14.01,2013-07-16 22:19:00,
2013-07-16 15:24:00,84.3,57.4,29.85,SE,143,13.0,15.0,40,0.00,,---,0.00,VWS V14.01,2013-07-16 22:24:00,
2013-07-16 15:29:00,84.3,56.7,29.85,SE,146,10.0,16.0,39,0.00,,---,0.00,VWS V14.01,2013-07-16 22:29:00,
2013-07-16 15:30:00,84.3,56.7,29.85,SE,136,9.0,16.0,39,0.00,,---,0.00,VWS V14.01,2013-07-16 22:30:00,
2013-07-16 15:34:00,84.3,57.4,29.85,SSE,156,9.0,14.0,40,0.00,,---,0.00,VWS V14.01,2013-07-16 22:34:00,
2013-07-16 15:39:00,84.4,56.0,29.84,SSE,155,6.0,14.0,38,0.00,,---,0.00,VWS V14.01,2013-07-16 22:39:00,
2013-07-16 15:44:00,84.2,56.6,29.85,SSE,151,7.0,15.0,39,0.00,,---,0.00,VWS V14.01,2013-07-16 22:44:00,
2013-07-16 15:45:00,84.2,55.9,29.85,South,170,7.0,15.0,38,0.00,,---,0.00,VWS V14.01,2013-07-16 22:45:00,
2013-07-16 15:49:00,84.2,55.9,29.84,SSE,166,6.0,12.0,38,0.00,,---,0.00,VWS V14.01,2013-07-16 22:49:00,
2013-07-16 15:54:00,84.2,55.9,29.84,SSE,159,10.0,14.0,38,0.00,,---,0.00,VWS V14.01,2013-07-16 22:54:00,
2013-07-16 15:59:00,84.3,55.2,29.84,SSE,165,6.0,14.0,37,0.00,,---,0.00,VWS V14.01,2013-07-16 22:59:00,
2013-07-16 16:00:00,84.4,56.0,29.84,SSE,160,9.0,14.0,38,0.00,,---,0.00,VWS V14.01,2013-07-16 23:00:00,
2013-07-16 16:04:00,84.5,57.5,29.84,SE,130,11.0,14.0,40,0.00,,---,0.00,VWS V14.01,2013-07-16 23:04:00,
2013-07-16 16:09:00,84.8,56.4,29.84,SE,146,5.0,17.0,38,0.00,,---,0.00,VWS V14.01,2013-07-16 23:09:00,
2013-07-16 16:14:00,84.9,57.2,29.84,SSE,155,6.0,17.0,39,0.00,,---,0.00,VWS V14.01,2013-07-16 23:14:00,
2013-07-16 16:15:00,84.8,57.1,29.84,SSE,158,10.0,17.0,39,0.00,,---,0.00,VWS V14.01,2013-07-16 23:15:00,
2013-07-16 16:19:00,84.9,55.8,29.84,SE,132,15.0,15.0,37,0.00,,---,0.00,VWS V14.01,2013-07-16 23:19:00,
2013-07-16 16:24:00,84.7,56.3,29.84,SSE,148,10.0,15.0,38,0.00,,---,0.00,VWS V14.01,2013-07-16 23:24:00,
2013-07-16 16:29:00,84.5,56.1,29.84,SE,146,10.0,15.0,38,0.00,,---,0.00,VWS V14.01,2013-07-16 23:29:00,
2013-07-16 16:30:00,84.5,56.8,29.84,SE,135,11.0,17.0,39,0.00,,---,0.00,VWS V14.01,2013-07-16 23:30:00,
2013-07-16 16:34:00,84.5,56.8,29.84,SSE,160,8.0,14.0,39,0.00,,---,0.00,VWS V14.01,2013-07-16 23:34:00,
2013-07-16 16:39:00,84.6,56.2,29.84,SSE,151,13.0,15.0,38,0.00,,---,0.00,VWS V14.01,2013-07-16 23:39:00,
2013-07-16 16:44:00,84.7,57.7,29.84,SSE,168,8.0,15.0,40,0.00,,---,0.00,VWS V14.01,2013-07-16 23:44:00,
2013-07-16 16:45:00,84.6,57.6,29.83,SE,139,10.0,15.0,40,0.00,,---,0.00,VWS V14.01,2013-07-16 23:45:00,
2013-07-16 16:49:00,84.7,57.0,29.83,SE,138,15.0,16.0,39,0.00,,---,0.00,VWS V14.01,2013-07-16 23:49:00,
2013-07-16 16:54:00,84.7,57.0,29.83,SE,135,12.0,16.0,39,0.00,,---,0.00,VWS V14.01,2013-07-16 23:54:00,
2013-07-16 16:59:00,84.7,56.3,29.83,SE,133,12.0,18.0,38,0.00,,---,0.00,VWS V14.01,2013-07-16 23:59:00,
2013-07-16 17:00:00,84.7,59.1,29.83,SSE,161,7.0,18.0,42,0.00,,---,0.00,VWS V14.01,2013-07-17 00:00:00,
2013-07-16 17:04:00,84.7,57.0,29.83,SE,134,14.0,14.0,39,0.00,,---,0.00,VWS V14.01,2013-07-17 00:04:00,
2013-07-16 17:09:00,84.6,55.5,29.83,SSE,147,13.0,17.0,37,0.00,,---,0.00,VWS V14.01,2013-07-17 00:09:00,
2013-07-16 17:14:00,84.4,56.8,29.83,SSE,147,10.0,17.0,39,0.00,,---,0.00,VWS V14.01,2013-07-17 00:14:00,
2013-07-16 17:15:00,84.4,56.8,29.83,SE,146,8.0,17.0,39,0.00,,---,0.00,VWS V14.01,2013-07-17 00:15:00,
2013-07-16 17:19:00,84.3,57.4,29.82,SSE,152,10.0,11.0,40,0.00,,---,0.00,VWS V14.01,2013-07-17 00:19:00,
2013-07-16 17:23:00,84.1,57.2,29.82,SE,139,13.0,15.0,40,0.00,,---,0.00,VWS V14.01,2013-07-17 00:23:00,
2013-07-16 17:28:00,84.0,57.1,29.82,SE,142,9.0,15.0,40,0.00,,---,0.00,VWS V14.01,2013-07-17 00:28:00,
2013-07-16 17:30:00,83.9,58.4,29.82,SSE,151,6.0,15.0,42,0.00,,---,0.00,VWS V14.01,2013-07-17 00:30:00,
2013-07-16 17:33:00,83.9,59.0,29.82,SE,141,10.0,13.0,43,0.00,,---,0.00,VWS V14.01,2013-07-17 00:33:00,
2013-07-16 17:38:00,83.7,57.5,29.82,SSE,148,11.0,13.0,41,0.00,,---,0.00,VWS V14.01,2013-07-17 00:38:00,
2013-07-16 17:43:00,83.7,57.5,29.82,SSE,157,6.0,13.0,41,0.00,,---,0.00,VWS V14.01,2013-07-17 00:43:00,
2013-07-16 17:45:00,83.7,57.5,29.82,South,173,6.0,13.0,41,0.00,,---,0.00,VWS V14.01,2013-07-17 00:45:00,
2013-07-16 17:48:00,83.7,57.5,29.82,SSE,148,8.0,11.0,41,0.00,,---,0.00,VWS V14.01,2013-07-17 00:48:00,
2013-07-16 17:53:00,83.5,57.3,29.82,SE,144,12.0,15.0,41,0.00,,---,0.00,VWS V14.01,2013-07-17 00:53:00,
2013-07-16 17:58:00,83.4,57.3,29.82,SE,144,11.0,15.0,41,0.00,,---,0.00,VWS V14.01,2013-07-17 00:58:00,
2013-07-16 18:00:00,83.3,57.2,29.82,SSE,154,7.0,15.0,41,0.00,,---,0.00,VWS V14.01,2013-07-17 01:00:00,
2013-07-16 18:03:00,83.2,57.1,29.82,SE,145,9.0,10.0,41,0.00,,---,0.00,VWS V14.01,2013-07-17 01:03:00,
2013-07-16 18:08:00,82.9,56.8,29.82,SSE,154,8.0,13.0,41,0.00,,---,0.00,VWS V14.01,2013-07-17 01:08:00,
2013-07-16 18:13:00,82.6,57.2,29.82,SE,141,8.0,13.0,42,0.00,,---,0.00,VWS V14.01,2013-07-17 01:13:00,
2013-07-16 18:15:00,82.4,57.0,29.82,SSE,148,6.0,13.0,42,0.00,,---,0.00,VWS V14.01,2013-07-17 01:15:00,
2013-07-16 18:18:00,82.3,58.2,29.82,SSE,157,6.0,12.0,44,0.00,,---,0.00,VWS V14.01,2013-07-17 01:18:00,
2013-07-16 18:23:00,82.0,58.0,29.82,SE,136,9.0,12.0,44,0.00,,---,0.00,VWS V14.01,2013-07-17 01:23:00,
2013-07-16 18:28:00,81.8,57.8,29.82,SE,143,9.0,12.0,44,0.00,,---,0.00,VWS V14.01,2013-07-17 01:28:00,
2013-07-16 18:30:00,81.7,58.3,29.82,SE,142,6.0,12.0,45,0.00,,---,0.00,VWS V14.01,2013-07-17 01:30:00,
2013-07-16 18:33:00,81.6,58.8,29.82,SSE,151,1.0,10.0,46,0.00,,---,0.00,VWS V14.01,2013-07-17 01:33:00,
2013-07-16 18:38:00,81.5,58.1,29.82,SSE,149,8.0,11.0,45,0.00,,---,0.00,VWS V14.01,2013-07-17 01:38:00,
2013-07-16 18:43:00,81.3,58.6,29.82,SSE,161,4.0,11.0,46,0.00,,---,0.00,VWS V14.01,2013-07-17 01:43:00,
2013-07-16 18:45:00,81.2,57.9,29.82,South,170,7.0,11.0,45,0.00,,---,0.00,VWS V14.01,2013-07-17 01:45:00,
2013-07-16 18:48:00,81.1,57.8,29.82,SSE,165,7.0,9.0,45,0.00,,---,0.00,VWS V14.01,2013-07-17 01:48:00,
2013-07-16 18:53:00,80.9,57.6,29.82,SSE,156,6.0,10.0,45,0.00,,---,0.00,VWS V14.01,2013-07-17 01:53:00,
2013-07-16 18:58:00,80.7,58.0,29.82,SE,142,9.0,11.0,46,0.00,,---,0.00,VWS V14.01,2013-07-17 01:58:00,
2013-07-16 19:00:00,80.6,57.9,29.82,SE,145,9.0,11.0,46,0.00,,---,0.00,VWS V14.01,2013-07-17 02:00:00,
2013-07-16 19:03:00,80.5,57.8,29.82,SSE,152,9.0,11.0,46,0.00,,---,0.00,VWS V14.01,2013-07-17 02:03:00,
2013-07-16 19:08:00,80.2,58.2,29.82,SSE,148,6.0,12.0,47,0.00,,---,0.00,VWS V14.01,2013-07-17 02:08:00,
2013-07-16 19:13:00,79.8,57.2,29.82,SSE,147,7.0,12.0,46,0.00,,---,0.00,VWS V14.01,2013-07-17 02:13:00,
2013-07-16 19:15:00,79.7,57.7,29.82,SE,144,8.0,12.0,47,0.00,,---,0.00,VWS V14.01,2013-07-17 02:15:00,
2013-07-16 19:18:00,79.5,56.9,29.82,SE,138,9.0,11.0,46,0.00,,---,0.00,VWS V14.01,2013-07-17 02:18:00,
2013-07-16 19:23:00,79.1,57.2,29.83,SE,144,7.0,11.0,47,0.00,,---,0.00,VWS V14.01,2013-07-17 02:23:00,
2013-07-16 19:28:00,78.7,56.8,29.83,SE,132,8.0,12.0,47,0.00,,---,0.00,VWS V14.01,2013-07-17 02:28:00,
2013-07-16 19:30:00,78.5,57.2,29.83,SE,137,9.0,12.0,48,0.00,,---,0.00,VWS V14.01,2013-07-17 02:30:00,
2013-07-16 19:33:00,78.3,57.0,29.83,SE,136,9.0,10.0,48,0.00,,---,0.00,VWS V14.01,2013-07-17 02:33:00,
2013-07-16 19:38:00,77.9,57.2,29.83,SSE,148,8.0,13.0,49,0.00,,---,0.00,VWS V14.01,2013-07-17 02:38:00,
2013-07-16 19:43:00,77.3,56.7,29.83,SSE,157,5.0,13.0,49,0.00,,---,0.00,VWS V14.01,2013-07-17 02:43:00,
2013-07-16 19:45:00,77.1,57.0,29.83,SSE,159,7.0,13.0,50,0.00,,---,0.00,VWS V14.01,2013-07-17 02:45:00,
2013-07-16 19:48:00,76.9,56.9,29.83,SSE,150,7.0,10.0,50,0.00,,---,0.00,VWS V14.01,2013-07-17 02:48:00,
2013-07-16 19:53:00,76.4,57.0,29.84,SSE,155,6.0,10.0,51,0.00,,---,0.00,VWS V14.01,2013-07-17 02:53:00,
2013-07-16 19:58:00,75.8,57.5,29.84,SE,146,9.0,10.0,53,0.00,,---,0.00,VWS V14.01,2013-07-17 02:58:00,
2013-07-16 20:00:00,75.5,57.2,29.84,SSE,149,8.0,11.0,53,0.00,,---,0.00,VWS V14.01,2013-07-17 03:00:00,
2013-07-16 20:03:00,75.2,56.9,29.83,SE,146,7.0,10.0,53,0.00,,---,0.00,VWS V14.01,2013-07-17 03:03:00,
2013-07-16 20:08:00,74.5,56.8,29.84,SE,145,10.0,10.0,54,0.00,,---,0.00,VWS V14.01,2013-07-17 03:08:00,
2013-07-16 20:13:00,73.9,57.2,29.84,SE,140,4.0,10.0,56,0.00,,---,0.00,VWS V14.01,2013-07-17 03:13:00,
2013-07-16 20:15:00,73.7,57.0,29.84,SE,138,5.0,10.0,56,0.00,,---,0.00,VWS V14.01,2013-07-17 03:15:00,
2013-07-16 20:18:00,73.4,57.3,29.84,SE,138,4.0,8.0,57,0.00,,---,0.00,VWS V14.01,2013-07-17 03:18:00,
2013-07-16 20:23:00,72.9,56.3,29.84,SSE,152,8.0,10.0,56,0.00,,---,0.00,VWS V14.01,2013-07-17 03:23:00,
2013-07-16 20:28:00,72.3,56.7,29.84,SSE,155,10.0,12.0,58,0.00,,---,0.00,VWS V14.01,2013-07-17 03:28:00,
2013-07-16 20:30:00,71.9,56.3,29.84,SSE,161,5.0,12.0,58,0.00,,---,0.00,VWS V14.01,2013-07-17 03:30:00,
2013-07-16 20:33:00,71.6,56.1,29.84,SSE,161,6.0,8.0,58,0.00,,---,0.00,VWS V14.01,2013-07-17 03:33:00,
2013-07-16 20:38:00,71.0,56.4,29.85,SSE,157,2.0,8.0,60,0.00,,---,0.00,VWS V14.01,2013-07-17 03:38:00,
2013-07-16 20:43:00,70.5,57.8,29.85,SSE,157,0.0,8.0,64,0.00,,---,0.00,VWS V14.01,2013-07-17 03:43:00,
2013-07-16 20:45:00,70.2,57.9,29.85,SSE,157,0.0,8.0,65,0.00,,---,0.00,VWS V14.01,2013-07-17 03:45:00,
2013-07-16 20:48:00,69.9,57.6,29.85,SSE,155,0.0,5.0,65,0.00,,---,0.00,VWS V14.01,2013-07-17 03:48:00,
2013-07-16 20:53:00,69.2,57.0,29.85,ESE,120,6.0,6.0,65,0.00,,---,0.00,VWS V14.01,2013-07-17 03:53:00,
2013-07-16 20:58:00,68.4,56.6,29.85,ESE,122,7.0,7.0,66,0.00,,---,0.00,VWS V14.01,2013-07-17 03:58:00,
2013-07-16 21:00:00,68.0,56.7,29.85,ESE,123,4.0,7.0,67,0.00,,---,0.00,VWS V14.01,2013-07-17 04:00:00,
2013-07-16 21:01:00,68.0,56.7,29.85,ESE,123,5.0,7.0,67,0.00,,---,0.00,VWS V14.01,2013-07-17 04:01:00,
2013-07-16 21:06:00,67.3,56.4,29.86,ESE,117,5.0,7.0,68,0.00,,---,0.00,VWS V14.01,2013-07-17 04:06:00,
2013-07-16 21:11:00,66.6,55.7,29.86,SE,125,6.0,8.0,68,0.00,,---,0.00,VWS V14.01,2013-07-17 04:11:00,
2013-07-16 21:15:00,66.1,55.7,29.86,ESE,121,5.0,8.0,69,0.00,,---,0.00,VWS V14.01,2013-07-17 04:15:00,
2013-07-16 21:16:00,66.0,55.5,29.86,ESE,121,5.0,6.0,69,0.00,,---,0.00,VWS V14.01,2013-07-17 04:16:00,
2013-07-16 21:21:00,65.6,55.6,29.86,ESE,119,2.0,8.0,70,0.00,,---,0.00,VWS V14.01,2013-07-17 04:21:00,
2013-07-16 21:26:00,65.2,55.2,29.87,East,95,4.0,8.0,70,0.00,,---,0.00,VWS V14.01,2013-07-17 04:26:00,
2013-07-16 21:30:00,64.8,55.2,29.87,ESE,109,2.0,8.0,71,0.00,,---,0.00,VWS V14.01,2013-07-17 04:30:00,
2013-07-16 21:31:00,64.8,55.2,29.87,ESE,109,1.0,2.0,71,0.00,,---,0.00,VWS V14.01,2013-07-17 04:31:00,
2013-07-16 21:36:00,64.4,55.2,29.87,ESE,121,7.0,8.0,72,0.00,,---,0.00,VWS V14.01,2013-07-17 04:36:00,
2013-07-16 21:41:00,63.9,55.1,29.87,ESE,119,1.0,8.0,73,0.00,,---,0.00,VWS V14.01,2013-07-17 04:41:00,
2013-07-16 21:45:00,63.6,54.8,29.88,ESE,119,2.0,8.0,73,0.00,,---,0.00,VWS V14.01,2013-07-17 04:45:00,
2013-07-16 21:46:00,63.6,54.8,29.88,ESE,119,2.0,2.0,73,0.00,,---,0.00,VWS V14.01,2013-07-17 04:46:00,
2013-07-16 21:51:00,63.2,54.8,29.88,ESE,117,2.0,6.0,74,0.00,,---,0.00,VWS V14.01,2013-07-17 04:51:00,
2013-07-16 21:55:00,63.0,54.6,29.88,ESE,116,2.0,7.0,74,0.00,,---,0.00,VWS V14.01,2013-07-17 04:55:00,
2013-07-16 21:59:00,62.7,54.7,29.88,ESE,116,4.0,7.0,75,0.00,,---,0.00,VWS V14.01,2013-07-17 04:59:00,
2013-07-16 22:00:00,62.6,54.6,29.88,ESE,115,2.0,7.0,75,0.00,,---,0.00,VWS V14.01,2013-07-17 05:00:00,
2013-07-16 22:04:00,62.4,54.4,29.88,ESE,116,5.0,6.0,75,0.00,,---,0.00,VWS V14.01,2013-07-17 05:04:00,
2013-07-16 22:09:00,62.1,54.5,29.88,ESE,119,6.0,7.0,76,0.00,,---,0.00,VWS V14.01,2013-07-17 05:09:00,
2013-07-16 22:14:00,61.7,54.4,29.88,ESE,120,4.0,7.0,77,0.00,,---,0.00,VWS V14.01,2013-07-17 05:14:00,
2013-07-16 22:15:00,61.6,54.3,29.88,ESE,119,4.0,7.0,77,0.00,,---,0.00,VWS V14.01,2013-07-17 05:15:00,
2013-07-16 22:19:00,61.4,54.1,29.88,ESE,117,5.0,6.0,77,0.00,,---,0.00,VWS V14.01,2013-07-17 05:19:00,
2013-07-16 22:24:00,61.1,54.2,29.88,ESE,115,4.0,6.0,78,0.00,,---,0.00,VWS V14.01,2013-07-17 05:24:00,
2013-07-16 22:29:00,60.9,54.0,29.89,ESE,115,0.0,6.0,78,0.00,,---,0.00,VWS V14.01,2013-07-17 05:29:00,
2013-07-16 22:30:00,60.8,54.3,29.89,ESE,115,0.0,6.0,79,0.00,,---,0.00,VWS V14.01,2013-07-17 05:30:00,
2013-07-16 22:34:00,60.6,54.1,29.89,ESE,115,2.0,5.0,79,0.00,,---,0.00,VWS V14.01,2013-07-17 05:34:00,
2013-07-16 22:39:00,60.4,53.9,29.89,ESE,115,1.0,5.0,79,0.00,,---,0.00,VWS V14.01,2013-07-17 05:39:00,
2013-07-16 22:44:00,60.2,54.0,29.89,ESE,113,0.0,5.0,80,0.00,,---,0.00,VWS V14.01,2013-07-17 05:44:00,
2013-07-16 22:45:00,60.1,53.9,29.89,ESE,112,2.0,5.0,80,0.00,,---,0.00,VWS V14.01,2013-07-17 05:45:00,
2013-07-16 22:49:00,60.0,53.8,29.89,ESE,111,2.0,4.0,80,0.00,,---,0.00,VWS V14.01,2013-07-17 05:49:00,
2013-07-16 22:54:00,59.8,53.6,29.89,ESE,111,1.0,4.0,80,0.00,,---,0.00,VWS V14.01,2013-07-17 05:54:00,
2013-07-16 22:59:00,59.6,53.8,29.89,ESE,109,0.0,4.0,81,0.00,,---,0.00,VWS V14.01,2013-07-17 05:59:00,
2013-07-16 23:00:00,59.5,53.7,29.89,ESE,105,4.0,4.0,81,0.00,,---,0.00,VWS V14.01,2013-07-17 06:00:00,
2013-07-16 23:04:00,59.4,53.6,29.89,East,95,4.0,6.0,81,0.00,,---,0.00,VWS V14.01,2013-07-17 06:04:00,
2013-07-16 23:09:00,59.2,53.4,29.90,East,95,1.0,6.0,81,0.00,,---,0.00,VWS V14.01,2013-07-17 06:09:00,
2013-07-16 23:14:00,59.0,53.2,29.90,East,95,1.0,6.0,81,0.00,,---,0.00,VWS V14.01,2013-07-17 06:14:00,
2013-07-16 23:15:00,58.9,53.1,29.90,East,96,2.0,6.0,81,0.00,,---,0.00,VWS V14.01,2013-07-17 06:15:00,
2013-07-16 23:19:00,58.8,53.3,29.89,East,95,1.0,5.0,82,0.00,,---,0.00,VWS V14.01,2013-07-17 06:19:00,
2013-07-16 23:24:00,58.6,53.1,29.89,East,96,1.0,5.0,82,0.00,,---,0.00,VWS V14.01,2013-07-17 06:24:00,
2013-07-16 23:29:00,58.4,52.9,29.90,East,96,1.0,5.0,82,0.00,,---,0.00,VWS V14.01,2013-07-17 06:29:00,
2013-07-16 23:30:00,58.3,53.2,29.90,East,96,2.0,5.0,83,0.00,,---,0.00,VWS V14.01,2013-07-17 06:30:00,
2013-07-16 23:34:00,58.2,53.1,29.90,East,95,4.0,4.0,83,0.00,,---,0.00,VWS V14.01,2013-07-17 06:34:00,
2013-07-16 23:39:00,58.0,52.9,29.90,East,92,2.0,6.0,83,0.00,,---,0.00,VWS V14.01,2013-07-17 06:39:00,
2013-07-16 23:44:00,57.9,52.8,29.90,East,94,1.0,6.0,83,0.00,,---,0.00,VWS V14.01,2013-07-17 06:44:00,
2013-07-16 23:45:00,57.8,53.0,29.90,East,94,0.0,6.0,84,0.00,,---,0.00,VWS V14.01,2013-07-17 06:45:00,
2013-07-16 23:49:00,57.7,52.9,29.90,East,94,2.0,2.0,84,0.00,,---,0.00,VWS V14.01,2013-07-17 06:49:00,
2013-07-16 23:54:00,57.5,52.7,29.90,East,94,1.0,4.0,84,0.00,,---,0.00,VWS V14.01,2013-07-17 06:54:00,
2013-07-16 23:59:00,57.4,52.6,29.90,East,94,4.0,5.0,84,0.00,,---,0.00,VWS V14.01,2013-07-17 06:59:00,